Temperature
24 23 22 23 23 24 23 23 23 23 24 23 22 22 22 21 21 21 21 21 21 21 21 21 21 20 20 20 20 20 20 20 19 19 19 19 19 19 18 18 18 18 18 18
23 23 24 24 24 24 23 23 23 24 24 23 22 22 22 21 21 21 21 21 21 21 21 21 21 20 20 20 20 20 20 19 19 19 19 19 18 18 18 18 18 18 18 18
25 25 25 25 24 24 24 23 23 23 23 23 23 22 22 22 21 21 21 21 21 21 21 21 21 20 20 20 20 20 20 19 19 19 19 19 19 18 18 18 18 18 18 18
24 25 25 25 25 24 23 24 24 24 22 21 22 21 22 21 21 21 21 21 21 21 21 21 21 21 21 20 20 20 19 19 19 19 19 19 19 18 18 18 18 18 18 18
25 25 26 25 25 25 24 24 23 23 22 21 21 21 21 20 21 20 21 21 21 21 21 21 21 21 21 20 20 20 19 19 19 19 19 19 18 18 18 18 18 18 18 18
25 25 26 26 26 25 24 23 22 20 20 21 21 21 21 20 21 21 21 21 22 21 21 21 21 21 20 20 20 20 19 19 19 19 19 19 18 18 18 18 18 18 17 17
25 25 25 25 25 25 23 21 21 21 20 21 21 21 21 21 21 21 21 22 22 22 21 21 21 21 20 20 20 20 19 19 19 19 19 18 18 18 18 18 17 17 17 17
24 24 25 25 25 24 23 22 21 22 21 20 21 21 21 22 22 22 22 22 22 22 22 22 21 21 21 20 20 20 19 19 19 19 19 18 18 18 18 18 17 17 17 17
23 24 25 26 25 24 23 21 21 20 20 20 20 21 21 22 21 21 21 21 22 22 22 22 22 21 21 21 20 20 20 19 19 19 19 18 18 18 18 18 17 17 17 17
23 24 25 25 25 24 23 20 19 19 20 21 21 21 21 22 21 21 20 21 22 22 22 22 22 21 21 21 20 20 20 19 19 19 19 18 18 18 18 17 17 17 17 17
23 23 24 24 25 24 23 21 19 17 19 20 21 21 22 21 21 20 20 21 22 22 22 22 22 21 21 21 20 20 20 19 19 19 18 18 18 18 18 18 17 17 17 16
21 20 21 23 24 24 23 22 19 21 20 18 19 20 22 20 20 20 21 21 22 22 22 22 21 21 21 21 20 20 20 19 19 19 18 18 18 18 18 18 17 17 17 16
21 20 21 22 23 23 23 21 19 18 17 17 19 21 21 20 20 21 21 21 22 21 21 21 21 21 21 21 20 20 20 19 19 19 18 18 18 18 18 17 17 17 16 16
21 19 21 22 22 22 23 22 20 19 19 18 19 20 20 20 19 20 20 21 21 21 21 21 21 21 21 20 20 20 20 19 19 18 18 18 18 17 17 17 17 17 16 16
20 20 20 21 22 22 23 23 21 21 20 20 20 19 20 19 19 19 20 21 21 21 21 21 21 21 21 20 20 20 19 19 19 18 18 18 17 17 17 17 16 16 16 16
18 19 20 21 22 22 22 22 22 21 21 20 20 20 19 19 20 19 20 20 20 20 20 20 20 20 20 20 20 20 19 19 19 18 18 18 17 17 17 16 16 16 16 16
17 18 19 19 21 22 21 21 22 21 20 20 20 20 18 18 18 19 20 20 20 20 20 20 20 20 20 20 20 19 19 18 18 18 17 17 17 17 16 16 16 16 16 15
17 16 16 17 20 21 21 21 21 21 20 20 19 19 18 18 19 20 20 20 20 20 20 20 20 20 19 19 19 19 18 18 18 17 17 17 16 16 16 16 16 16 15 15
15 16 16 16 18 20 21 21 21 21 20 19 18 18 18 19 19 19 20 20 20 20 20 20 19 19 19 19 19 18 18 17 17 17 17 16 16 16 16 16 16 15 15 15
14 15 15 16 19 19 20 21 21 20 20 19 18 18 18 18 17 18 20 20 20 19 19 19 19 19 19 18 18 18 18 17 17 17 16 16 16 16 16 16 15 15 15 15
16 15 16 16 18 18 19 19 20 20 19 19 19 19 18 18 18 19 19 19 19 19 19 19 18 18 18 18 18 17 17 17 16 16 16 16 16 16 15 15 15 15 15 15
16 16 15 15 18 18 19 19 19 18 20 19 19 19 19 19 19 19 19 19 19 19 18 18 18 18 17 17 17 17 16 16 16 16 16 16 16 15 15 15 15 15 15 14
15 15 15 15 17 17 18 19 20 20 19 19 20 19 19 18 18 18 18 18 18 18 18 18 17 17 17 17 16 16 16 16 16 16 16 15 15 15 15 15 14 14 14 14
15 14 14 15 16 17 18 19 19 20 20 20 20 20 19 19 18 18 18 17 17 17 17 17 17 16 16 16 16 16 16 15 15 15 15 15 15 15 14 14 14 14 14 13
14 14 14 14 15 17 18 19 19 19 20 19 19 19 19 18 18 17 17 17 17 17 17 16 16 16 16 15 15 15 15 15 15 15 15 15 14 14 14 14 14 13 13 13
13 14 14 15 16 15 17 18 19 19 19 19 19 18 18 18 18 17 17 17 17 16 16 16 16 16 15 15 15 15 15 15 14 14 14 14 14 14 13 13 13 13 13 13
Wind_Speed
3 4 2 6 6 4 3 2 2 3 1 2 2 3 4 5 5 6 6 6 5 5 3 2 3 3 2 1 1 1 1 1 2 1 1 1 1 1 2 1 2 3 2 2
4 3 6 4 4 3 3 1 1 2 1 2 1 3 3 4 7 8 8 8 7 5 3 3 3 3 3 2 2 1 1 0 1 1 1 1 0 1 1 1 2 3 2 2
5 5 3 4 3 2 2 4 4 2 2 3 2 4 3 3 3 4 5 6 6 8 7 5 4 4 3 3 3 2 2 1 1 1 2 2 2 2 2 2 2 2 2 2
4 4 3 3 3 4 4 4 4 2 2 2 1 2 6 3 3 6 7 6 7 7 7 6 5 5 4 4 3 2 2 1 1 2 2 2 2 0 1 1 2 2 3 2
4 3 3 3 4 6 4 1 3 2 3 2 2 1 7 2 5 7 9 9 9 8 8 7 7 6 5 4 3 3 2 1 1 2 3 3 2 0 1 1 2 3 2 2
4 3 3 4 1 4 4 6 6 6 4 1 3 3 6 4 7 6 7 9 9 8 7 7 6 5 4 3 3 3 3 1 1 2 2 3 2 1 1 2 2 2 2 2
5 4 2 2 2 2 5 6 4 4 4 5 3 2 8 7 5 6 7 7 8 7 7 6 6 6 6 5 5 4 3 2 1 2 2 2 2 2 1 1 1 1 1 1
1 5 4 3 5 5 4 7 6 4 4 5 2 4 7 5 3 2 3 4 5 6 7 7 7 7 7 7 6 5 4 3 2 2 2 1 1 1 1 1 0 1 1 1
6 6 4 2 2 8 6 4 5 6 2 1 5 6 7 2 2 1 2 3 4 5 7 7 6 7 7 6 6 6 5 4 3 3 2 1 1 1 1 1 0 1 1 1
7 4 4 2 5 4 5 8 6 5 4 2 5 5 4 4 4 2 3 4 4 4 5 6 6 6 6 6 5 5 5 5 4 3 3 2 2 2 1 1 0 1 1 1
5 4 4 3 2 4 3 4 5 5 5 5 3 7 5 7 6 5 5 5 5 5 4 5 5 5 5 5 5 5 4 4 4 4 3 2 1 1 1 1 1 1 1 1
3 5 1 4 4 2 4 6 7 5 3 4 4 7 6 4 4 4 4 4 3 3 3 2 3 4 4 5 5 5 5 4 4 3 3 2 2 1 1 1 2 1 1 1
5 6 2 6 5 3 2 3 4 5 5 5 4 7 4 1 0 2 3 3 2 2 2 2 2 3 4 4 5 4 4 3 3 3 3 2 2 2 2 2 2 1 1 2
5 4 6 8 7 3 1 2 4 5 4 4 7 7 6 4 2 2 2 3 3 3 3 3 3 3 3 3 3 3 3 3 3 3 3 3 3 3 3 2 2 2 1 2
5 3 3 4 3 3 3 3 3 5 7 7 7 7 8 7 5 3 3 3 4 3 2 3 3 2 2 2 3 3 3 3 3 3 3 3 3 2 2 2 2 1 1 2
4 4 2 1 1 1 2 3 3 4 4 5 4 6 5 3 1 1 3 4 4 4 3 2 3 3 2 3 3 3 3 3 3 3 3 3 2 2 2 2 2 1 1 2
2 5 3 2 3 2 4 5 5 3 3 5 6 6 2 1 3 5 4 4 5 5 4 4 4 4 3 4 4 4 3 3 3 3 2 2 2 2 2 2 2 2 2 2
5 5 3 2 2 4 7 4 3 3 2 3 3 3 5 5 4 2 2 3 3 4 4 4 3 3 3 2 3 3 3 3 2 2 1 2 2 3 2 2 2 3 2 2
5 7 4 4 3 5 6 3 3 4 2 2 2 1 1 2 3 2 2 1 3 3 3 3 3 3 3 3 3 4 3 2 2 0 1 2 2 3 3 3 3 3 2 3
5 5 6 4 4 6 7 4 1 4 2 2 3 3 3 4 2 4 2 2 2 2 2 3 3 3 3 2 3 4 2 2 0 2 2 2 2 3 3 4 3 3 2 3
3 4 4 4 4 7 5 4 1 4 6 3 3 4 4 4 5 4 2 2 3 2 2 3 3 3 2 2 3 3 2 1 2 2 2 1 2 2 3 2 2 2 2 2
4 4 4 5 3 7 3 2 4 5 2 2 2 3 3 2 1 2 3 3 3 2 2 3 3 2 1 2 3 2 1 2 1 1 1 1 2 2 1 1 1 1 1 2
4 6 5 7 7 4 2 3 3 2 2 2 2 3 4 3 2 3 2 2 2 2 2 2 3 2 1 2 3 2 2 1 1 1 1 2 2 2 1 1 1 1 1 2
2 1 2 2 4 4 3 3 2 2 2 2 3 4 5 4 3 3 3 2 2 2 2 2 3 2 1 1 2 3 2 1 0 1 2 2 1 2 2 1 1 1 2 2
3 0 1 2 5 4 5 4 2 1 1 2 2 3 4 5 4 4 3 3 3 3 2 3 3 2 2 2 2 2 2 1 1 2 2 2 2 2 2 2 2 2 3 4
4 5 4 6 6 4 6 5 2 1 2 2 2 1 2 5 5 3 3 3 4 4 3 2 2 2 3 2 2 2 2 2 2 1 2 2 2 2 2 2 3 3 4 5
Wind_Direction
71 77 215 218 196 187 171 174 264 272 228 151 210 238 222 194 188 195 197 198 202 212 216 189 173 157 138 120 115 110 84 75 90 77 76 60 10 352 3 354 360 5 11 24
48 259 235 193 169 156 157 173 247 319 79 134 213 269 244 204 208 204 201 205 208 207 205 205 187 171 171 183 186 167 185 173 121 126 142 147 171 327 346 349 6 11 18 22
197 234 188 152 156 165 230 197 206 203 34 47 62 332 286 244 216 205 208 209 210 209 210 211 200 195 185 189 189 190 202 200 185 132 91 72 52 26 20 11 7 1 8 16
231 239 176 181 206 175 257 231 188 168 96 319 71 290 285 254 240 226 224 216 217 216 210 204 200 199 195 202 181 173 193 193 180 130 125 123 114 91 310 317 341 349 6 7
243 194 178 217 225 178 210 130 121 108 113 23 7 174 285 279 249 242 230 221 219 215 205 202 200 196 189 184 176 177 176 179 173 145 151 138 122 128 344 356 1 359 1 2
252 235 201 211 200 155 127 71 60 49 66 336 264 184 277 242 230 240 231 220 214 209 202 198 188 174 173 167 168 171 162 194 186 146 141 146 154 144 51 4 1 356 360 4
330 318 261 153 86 53 93 89 39 3 2 263 268 207 256 262 237 222 229 215 207 198 191 191 182 175 175 179 182 179 169 195 197 181 164 170 179 170 187 273 336 352 3 0
215 288 257 192 173 178 159 138 157 197 226 275 315 244 263 281 269 218 204 197 190 186 190 194 191 184 180 186 183 180 182 197 195 193 201 185 178 185 209 216 206 311 311 313
181 252 286 244 165 138 140 168 161 135 149 285 287 289 305 338 10 89 142 165 185 192 193 196 193 185 181 183 184 187 187 193 198 196 189 181 193 192 203 197 149 302 306 315
166 219 292 313 79 51 134 142 103 119 150 255 293 281 255 264 261 242 206 203 206 195 199 199 193 188 186 184 183 178 179 191 195 192 189 190 200 203 215 179 266 306 309 329
147 168 308 24 149 185 113 100 108 116 148 160 252 273 241 223 220 219 226 216 207 198 199 202 195 185 179 171 170 176 179 182 187 186 188 189 199 200 215 227 258 268 289 313
134 128 252 276 278 198 162 161 149 151 202 171 187 265 293 228 212 204 215 213 203 193 191 184 173 164 170 174 174 180 185 187 192 184 182 191 196 193 214 250 266 265 274 285
127 113 69 342 338 1 88 128 135 124 120 158 182 261 322 14 193 211 198 191 178 172 158 144 149 165 181 183 180 183 185 188 183 170 177 187 200 207 222 245 266 274 270 284
121 116 165 199 222 216 218 177 149 130 151 200 221 244 293 294 283 275 221 189 173 173 171 169 176 182 186 179 169 170 177 174 169 169 177 191 214 219 224 231 241 256 260 269
101 135 194 225 231 190 208 223 184 187 189 194 230 227 247 243 228 225 210 188 163 170 179 178 173 170 163 159 162 167 169 171 170 173 190 212 225 227 224 236 247 253 265 275
76 132 136 313 302 193 252 269 231 223 201 209 229 254 255 236 175 174 198 189 183 188 191 179 161 151 159 168 169 166 169 172 162 174 207 220 216 224 232 247 257 272 288 292
101 126 122 239 294 18 282 247 217 204 202 181 215 238 205 176 197 201 203 195 194 187 182 178 177 175 181 183 175 171 174 156 155 180 218 233 222 230 247 257 269 269 270 273
143 121 130 155 95 229 250 264 194 186 252 231 228 236 201 203 207 216 198 188 193 183 179 183 179 169 177 161 143 130 115 117 137 166 214 240 234 244 251 247 256 263 257 259
158 140 129 137 184 264 283 250 183 176 270 247 186 174 148 108 69 350 289 197 192 189 184 183 176 162 146 130 127 121 114 109 98 89 265 257 241 244 251 253 259 254 253 265
78 104 123 134 162 225 244 275 242 114 282 263 165 158 142 111 124 258 263 205 173 164 165 160 148 131 130 135 126 119 125 113 181 254 259 256 241 240 252 256 258 261 255 264
65 69 125 158 201 251 260 284 93 158 238 236 184 175 160 179 208 217 183 163 158 160 153 137 137 139 156 146 126 123 126 209 248 258 266 273 263 251 249 260 270 283 277 283
165 151 172 153 187 250 282 104 159 214 243 188 180 179 167 182 169 156 152 154 152 148 142 140 138 141 140 132 127 131 226 256 270 285 290 291 288 276 267 276 310 319 300 298
191 190 184 186 208 240 249 202 233 184 187 218 180 170 147 138 149 144 150 162 166 170 168 145 141 142 147 138 144 186 244 287 350 356 319 306 316 317 313 279 286 305 295 279
280 127 141 244 265 272 281 282 270 213 210 214 175 156 149 154 164 161 159 162 164 174 172 151 143 158 200 224 195 208 230 215 84 306 299 304 315 317 320 309 279 268 274 275
248 200 139 257 273 307 311 297 282 340 94 113 123 149 158 151 166 176 180 183 178 179 178 169 166 190 228 251 255 233 218 181 203 274 292 301 297 288 303 302 278 258 256 241
219 198 196 235 235 222 264 277 267 196 202 174 149 165 175 170 181 185 195 204 192 185 179 169 174 197 227 235 245 251 227 189 190 255 284 288 292 293 281 282 306 295 266 272
Height
1506 1511 1516 1514 1512 1514 1517 1522 1524 1518 1512 1515 1518 1518 1516 1516 1517 1518 1518 1519 1520 1520 1522 1523 1523 1524 1525 1525 1525 1525 1525 1525 1525 1525 1525 1525 1525 1525 1524 1524 1524 1524 1523 1523
1511 1514 1507 1506 1509 1512 1516 1521 1522 1517 1512 1515 1519 1518 1515 1515 1515 1515 1516 1517 1518 1520 1521 1522 1523 1523 1524 1525 1525 1525 1525 1526 1525 1525 1526 1525 1525 1525 1525 1524 1524 1524 1523 1523
1511 1508 1503 1506 1510 1514 1516 1520 1520 1519 1516 1516 1519 1523 1518 1514 1514 1515 1516 1516 1517 1518 1519 1521 1522 1523 1523 1524 1525 1525 1525 1526 1526 1526 1525 1525 1525 1525 1525 1524 1524 1523 1523 1523
1506 1503 1503 1506 1509 1511 1519 1510 1512 1516 1525 1531 1526 1540 1522 1516 1515 1514 1513 1514 1514 1516 1517 1519 1520 1521 1522 1523 1524 1525 1525 1526 1526 1526 1525 1525 1525 1524 1524 1524 1524 1523 1523 1522
1506 1502 1503 1507 1505 1506 1511 1507 1512 1517 1525 1533 1530 1537 1529 1517 1516 1512 1510 1510 1511 1513 1515 1516 1518 1519 1521 1522 1523 1524 1525 1525 1525 1525 1525 1525 1525 1524 1524 1524 1523 1523 1522 1521
1501 1498 1499 1500 1500 1502 1505 1512 1518 1525 1533 1544 1534 1538 1533 1520 1512 1507 1505 1506 1507 1510 1512 1514 1516 1518 1519 1521 1522 1523 1524 1524 1524 1524 1525 1525 1524 1524 1524 1523 1522 1522 1521 1521
1507 1500 1497 1497 1503 1504 1508 1526 1544 1547 1553 1548 1532 1534 1529 1508 1503 1503 1502 1503 1505 1508 1510 1512 1513 1515 1517 1519 1520 1521 1522 1523 1524 1524 1524 1524 1524 1524 1523 1522 1522 1521 1520 1520
1519 1517 1500 1496 1500 1507 1511 1520 1543 1552 1555 1546 1533 1534 1518 1503 1500 1500 1501 1502 1504 1506 1508 1510 1511 1513 1515 1517 1519 1520 1521 1522 1523 1523 1524 1524 1524 1523 1523 1522 1522 1521 1520 1519
1517 1516 1497 1494 1495 1500 1512 1519 1520 1537 1542 1547 1539 1527 1512 1501 1500 1500 1501 1501 1503 1505 1507 1508 1510 1512 1514 1516 1518 1519 1520 1521 1522 1522 1522 1523 1523 1522 1522 1521 1521 1520 1519 1519
1503 1512 1500 1496 1496 1499 1503 1512 1526 1537 1549 1551 1540 1531 1524 1508 1504 1502 1501 1501 1502 1504 1505 1507 1509 1511 1513 1515 1517 1518 1519 1520 1521 1521 1521 1521 1521 1522 1521 1521 1520 1519 1518 1518
1498 1510 1507 1501 1503 1506 1509 1515 1524 1535 1537 1549 1551 1536 1506 1503 1501 1501 1501 1501 1501 1502 1504 1506 1507 1510 1512 1514 1515 1516 1517 1518 1519 1519 1520 1520 1520 1520 1520 1519 1518 1518 1517 1516
1498 1510 1517 1508 1499 1497 1501 1508 1518 1529 1536 1541 1544 1533 1499 1498 1498 1498 1499 1500 1502 1503 1504 1505 1507 1509 1510 1512 1513 1515 1516 1517 1517 1518 1519 1519 1519 1519 1518 1518 1517 1517 1516 1515
1498 1510 1524 1521 1514 1504 1504 1507 1512 1520 1531 1540 1542 1527 1499 1497 1497 1498 1499 1499 1501 1503 1504 1505 1506 1507 1509 1510 1512 1513 1514 1516 1517 1517 1518 1517 1517 1517 1517 1516 1516 1515 1514 1513
1493 1508 1518 1523 1518 1508 1507 1506 1510 1517 1530 1534 1529 1517 1505 1500 1499 1498 1498 1499 1501 1502 1503 1504 1505 1506 1508 1509 1511 1512 1513 1514 1515 1516 1516 1516 1516 1516 1515 1515 1514 1513 1512 1511
1493 1507 1507 1506 1503 1503 1503 1504 1506 1510 1514 1520 1514 1512 1503 1499 1498 1497 1498 1498 1499 1501 1502 1503 1504 1505 1507 1508 1509 1510 1511 1512 1513 1514 1514 1514 1514 1514 1514 1513 1512 1511 1510 1510
1496 1505 1506 1507 1502 1502 1504 1502 1502 1503 1505 1507 1506 1506 1497 1497 1497 1497 1497 1498 1498 1499 1501 1502 1503 1504 1505 1506 1507 1508 1509 1510 1511 1511 1512 1512 1512 1512 1512 1511 1510 1509 1508 1507
1501 1505 1513 1516 1507 1504 1512 1502 1500 1500 1499 1501 1504 1499 1496 1497 1496 1496 1496 1496 1497 1499 1500 1501 1502 1503 1504 1504 1505 1506 1506 1507 1509 1509 1510 1510 1510 1510 1510 1509 1508 1507 1506 1505
1500 1507 1516 1519 1514 1523 1507 1493 1493 1496 1496 1495 1495 1495 1494 1494 1494 1495 1496 1496 1496 1498 1499 1500 1501 1502 1503 1504 1504 1505 1506 1506 1507 1507 1507 1508 1508 1508 1507 1507 1505 1504 1504 1503
1494 1503 1516 1523 1523 1515 1501 1492 1493 1496 1498 1494 1494 1494 1494 1494 1495 1496 1496 1496 1496 1497 1498 1499 1500 1501 1503 1503 1503 1504 1505 1505 1505 1505 1505 1506 1506 1505 1505 1504 1503 1502 1501 1500
1496 1499 1511 1520 1520 1521 1502 1490 1488 1493 1501 1493 1492 1492 1492 1493 1499 1497 1495 1495 1496 1497 1498 1499 1499 1501 1502 1502 1503 1503 1504 1503 1503 1503 1504 1504 1503 1503 1502 1501 1500 1500 1499 1498
1503 1507 1512 1516 1516 1508 1493 1488 1489 1504 1501 1491 1490 1490 1491 1492 1493 1493 1493 1494 1495 1496 1497 1498 1499 1500 1501 1502 1502 1503 1503 1502 1502 1502 1502 1502 1501 1500 1500 1499 1498 1497 1496 1495
1503 1508 1512 1515 1515 1509 1489 1488 1493 1493 1488 1488 1489 1490 1490 1490 1491 1491 1492 1493 1494 1495 1497 1497 1498 1499 1500 1501 1501 1502 1502 1501 1501 1501 1500 1500 1499 1498 1497 1496 1495 1494 1494 1492
1499 1499 1501 1502 1501 1491 1488 1487 1487 1488 1487 1487 1488 1489 1490 1490 1490 1491 1492 1493 1493 1494 1495 1496 1497 1498 1498 1499 1500 1500 1500 1500 1499 1498 1498 1497 1497 1496 1495 1494 1493 1492 1491 1489
1495 1494 1496 1496 1491 1487 1486 1486 1485 1486 1486 1487 1487 1488 1489 1489 1490 1490 1491 1492 1493 1493 1494 1495 1496 1496 1496 1497 1498 1498 1498 1497 1497 1496 1496 1495 1494 1493 1492 1491 1490 1489 1488 1486
1494 1494 1494 1494 1489 1486 1484 1484 1484 1484 1485 1486 1487 1487 1488 1488 1489 1490 1490 1490 1491 1492 1493 1493 1493 1494 1494 1495 1495 1495 1495 1495 1495 1494 1493 1493 1492 1491 1490 1489 1488 1486 1485 1484
1490 1491 1492 1491 1487 1487 1484 1483 1483 1483 1483 1484 1485 1486 1487 1487 1488 1488 1488 1489 1489 1490 1490 1491 1492 1492 1492 1493 1493 1493 1493 1493 1492 1491 1491 1490 1489 1488 1487 1486 1485 1483 1482 1480